Location: Piotrkow Trybunalski
(51.4000°N, 19.6830°E)
Time: 04:19:44
(UTC+02:00)

A-11 Canister half - Pass Details

Date: 05 February 2023
Orbit: 1526 x 1682 km, 47.3° (Epoch: 24 March)

Event Time Altitude Azimuth Distance (km) Brightness Sun altitude
Rises 05:09:11 0° 224° (SW) 4,672 - -19.6°
Exits shadow 05:11:01 - 221° (SW) 4,098 10.9 -19.3°
Reaches altitude 10° 05:12:22 10° 218° (SW) 3,688 10.7 -19.1°
Maximum altitude 05:20:59 45° 150° (SSE) 1,987 9.8 -17.7°
Drops below altitude 10° 05:29:42 10° 82° (E) 3,736 12.3 -16.4°
Sets 05:32:57 0° 76° (ENE) 4,738 13.0 -15.9°
